Home   Weather   Detroit   Past weeks

Flag for USA Past Weather in Detroit, Michigan, USA — Yesterday and Last 2 Weeks

Now
47 °F

Overcast.


Feels Like: 42 °F
Forecast: 44 / 63 °F
Wind: 10 mph from Northeast

Location: Detroit City Airport

Current Time: Apr 30, 2017 at 11:18:04 am

Latest Report: Apr 30, 2017 at 9:53 am


Visibility: 10 mi

Pressure: 30.03 "Hg

Humidity: 83%

Dew Point: 42 °F

Location of DetroitLocation

Past Weather in Detroit — Graph

°F

Detroit Temperature Yesterday

Maximum temperature yesterday: 57 °F (at 12:53 am)
Minimum temperature yesterday: 42 °F (at 11:53 pm)
Average temperature yesterday: 47 °F

High & Low Weather Summary for the Past Weeks

 TemperatureHumidityPressure
High82 °F (Apr 15, 3:53 pm)100% (Apr 20, 12:53 pm)30.36 "Hg (Apr 20, 12:53 pm)
Low36 °F (Apr 23, 5:53 am)26% (Apr 17, 1:53 pm)29.49 "Hg (Apr 27, 7:53 am)
Average56 °F69%29.97 "Hg
* Reported Apr 15 9:53 am — Apr 30 9:53 am, Detroit, Weather by CustomWeather, © 2017

Note: Actual official high and low records may vary slightly from our data, if they occured in-between our weather recording intervals... More about our weather records

Advertising

Detroit Weather History for the Previous 24 Hours

Scroll right to see more
 ConditionsComfort  
Time TempWeatherWind HumidityBarometerVisibility
9:53 am
Sun, Apr 30
47 °FOvercast.10 mph83%30.03 "Hg10 mi
8:53 am46 °FOvercast.12 mph83%30.04 "Hg10 mi
7:53 am46 °FMostly cloudy.10 mph83%30.06 "Hg10 mi
7:11 am46 °FMostly cloudy.15 mph79%30.05 "Hg10 mi
6:53 am45 °FMore clouds than sun.14 mph86%30.05 "Hg10 mi
5:53 am44 °FOvercast.7 mph93%30.07 "Hg10 mi
5:25 am44 °FMostly cloudy.10 mph89%30.06 "Hg10 mi
4:53 am43 °FPassing clouds.13 mph93%30.06 "Hg10 mi
3:53 am43 °FMostly cloudy.9 mph97%30.12 "Hg10 mi
2:53 am43 °FHeavy rain. Fog.10 mph89%30.13 "Hg3 mi
1:53 am43 °FLight rain. Partly cloudy.13 mph86%30.12 "Hg10 mi
12:53 am44 °FOvercast.17 mph71%30.13 "Hg10 mi
11:53 pm
Sat, Apr 29
42 °FOvercast.14 mph62%30.18 "Hg10 mi
10:53 pm43 °FOvercast.14 mph60%30.26 "Hg10 mi
9:53 pm44 °FOvercast.13 mph58%30.25 "Hg10 mi
8:53 pm45 °FOvercast.12 mph58%30.24 "Hg10 mi
7:53 pm46 °FOvercast.12 mph58%30.22 "Hg10 mi
6:53 pm45 °FOvercast.8 mph65%30.24 "Hg10 mi
5:53 pm45 °FOvercast.9 mph68%30.24 "Hg10 mi
4:53 pm47 °FOvercast.10 mph64%30.22 "Hg10 mi
3:53 pm48 °FPartly sunny.13 mph66%30.20 "Hg10 mi
2:53 pm44 °FOvercast.8 mph79%30.25 "Hg10 mi
1:53 pm45 °FOvercast.9 mph71%30.25 "Hg10 mi
12:53 pm46 °FOvercast.13 mph68%30.24 "Hg10 mi
11:53 am46 °FOvercast.10 mph66%30.23 "Hg10 mi
Weather by CustomWeather, © 2017

See weather overviewHow to use our weather pages